Location: Christchurch
(43.5330°S, 172.6330°E)
Time: 05:43:07
(UTC+13:00)

Cosmos 1733 Rocket - Pass Details

Date: 24 January 2019
Orbit: 604 x 627 km, 82.5° (Epoch: 19 February)

Event Time Altitude Azimuth Distance (km) Brightness Sun altitude
Rises 22:50:24 0° 177° (S) 2,931 7.2 -16.0°
Reaches altitude 10° 22:53:02 10° 162° (SSE) 2,012 6.1 -16.3°
Maximum altitude 22:56:38 24° 108° (ESE) 1,307 4.5 -16.7°
Enters shadow 22:57:44 22° 86° (E) 1,381 4.4 -16.9°
